Tracking 30009 objects as of 8-Dec-2024
HD Live streaming from Space Station
objects crossing your sky now

GALAXY 23 (TELSTAR 13)

Track GALAXY 23 (TELSTAR 13) now!
GALAXY 23 (TELSTAR 13) is classified as:


NORAD ID: 27854
Int'l Code: 2003-034A
Perigee: 35,781.9 km
Apogee: 35,805.7 km
Inclination: 1.8 °
Period: 1,436.1 minutes
Semi major axis: 42164 km
RCS: 36.5219 m2 (large)
Launch date: August 8, 2003
Source: United States (US)
Launch site: SEA LAUNCH (SEAL)

24 C-band, 2 Ka-band, 32 Ku-band; additional C-band payload owned and operated by Loral Skynet.
Your satellite tracking list
Your tracking list is empty




NASA's NSSDC Master Catalog

Two Line Element Set (TLE):
1 27854U 03034A   24342.63896650  .00000029  00000-0  00000-0 0  9995
2 27854   1.7557  86.7224 0002817 178.1750 281.1438  1.00271526 78162
Source of the keplerian elements: AFSPC